Location: Kergonan
(48.2337°N, 4.5518°W)
Time: 09:58:35
(UTC+00:00)

CZ-4 R/B - Pass Details

Date: 18 January 2020
Orbit: 534 x 597 km, 97.7° (Epoch: 16 February)

Event Time Altitude Azimuth Distance (km) Brightness Sun altitude
Rises 06:33:25 0° 27° (NNE) 2,847 5.1 -14.4°
Reaches altitude 10° 06:36:08 10° 45° (NE) 1,943 4.5 -14.0°
Maximum altitude 06:39:10 19° 91° (E) 1,440 4.5 -13.5°
Drops below altitude 10° 06:42:12 10° 138° (SE) 1,931 5.0 -13.0°
Sets 06:44:53 0° 156° (SSE) 2,824 5.6 -12.6°
